Hourly Data Report for October 18, 2015

All times are specified in Local Standard Time (LST). Add 1 hour to adjust for Daylight Saving Time where and when it is observed.

GJOA HAVEN A
NUNAVUT

68°38'08.000" N
95°51'01.000" W
46.90 m
2302337
71597
YHK

Download Data

Hourly Data (October 2015)
Hourly Data Report for October 18, 2015
Temp Definition
°C
Dew Point Temp Definition
°C
Rel Hum Definition
%
Wind Dir Definition
10's deg

Wind Spd Definition
km/h
Visibility Definition
km
Stn Press Definition
kPa
Hmdx Definition


Wind Chill Definition


Weather Definition


TIME
00:00 Legend Double Dagger -11.1 -12.9 87 35 15 16.1 100.66   -18 LegendNANA
01:00 Legend Double Dagger -10.8 -12.7 86 35 18 16.1 100.60   -18 LegendNANA
02:00 Legend Double Dagger -11.4 -13.3 86 35 22 16.1 100.56   -20 LegendNANA
03:00 Legend Double Dagger -10.9 -12.1 91 35 22 16.1 100.54   -19 LegendNANA
04:00 Legend Double Dagger -10.5 -11.4 93 36 22 16.1 100.50   -19 LegendNANA
05:00 Legend Double Dagger -10.0 -11.3 90 36 21 16.1 100.47   -18 LegendNANA
06:00 Legend Double Dagger -9.6 -11.5 86 2 18 16.1 100.44   -17 LegendNANA
07:00 Legend Double Dagger -9.4 -12.4 79 2 18 16.1 100.42   -17 LegendNANA
08:00 Legend Double Dagger -9.3 -12.6 77 36 13 16.1 100.42   -15 LegendNANA
09:00 Legend Double Dagger -9.2 -13.0 74 2 22 16.1 100.40   -17 LegendNANA
10:00 Legend Double Dagger -9.1 -12.9 74 36 24 16.1 100.41   -17 LegendNANA
11:00 Legend Double Dagger -9.0 -12.0 79 35 15 16.1 100.41   -16 LegendNANA
12:00 Legend Double Dagger -9.0 -13.3 71 2 22 16.1 100.41   -17 Snow
13:00 Legend Double Dagger -9.1 -13.8 69 1 21 16.1 100.40   -17 Snow
14:00 Legend Double Dagger -9.4 -11.9 82 1 18 16.1 100.41   -17 Snow
15:00 Legend Double Dagger -9.1 -13.7 69 2 18 16.1 100.42   -16 Snow
16:00 Legend Double Dagger -9.9 -11.2 90 36 26 16.1 100.44   -19 LegendNANA
17:00 Legend Double Dagger -10.4 -11.5 92 1 21 16.1 100.49   -19 LegendNANA
18:00 Legend Double Dagger -8.8 -10.9 85 4 34 3.2 100.51   -18 Snow
19:00 Legend Double Dagger -8.9 -10.1 91 5 30 1.2 100.53   -18 Snow
20:00 Legend Double Dagger -9.3 -11.0 88 1 30 6.4 100.56   -19 Snow
21:00 Legend Double Dagger -9.5 -10.6 92 36 32 2.0 100.59   -19 Snow
22:00 Legend Double Dagger -10.9 -12.0 92 35 32 8.1 100.61   -21 Fog
23:00 Legend Double Dagger -10.0 -10.9 93 35 30 1.2 100.67   -20 Snow

Notes on Data Quality.

Legend

  • E = Estimated
  • M = Missing
  • NA = Not Available
  • ‡ = Partner data that is not subject to review by the National Climate Archives
Date modified: